COSMOS 252 DEB, 3784

Orbit data source: Space-Track

COSMOS 252 DEB, 3784 is space debris in LEO originally from a launch on Fri, 01 Nov 1968 UTC launched from the Tyuratam Missile And Space Complex (TTMTR). Debris objects in space refer to the collection of defunct objects orbiting the Earth. Examples of debris include non-operational satellites, rocket bodies, and fragments generated from explosions, collisions, or faulty payload assembly.

Loading next visibility...
Identifier
3784, 1968-097AW
Orbit
LEO
Country
Flag of CISCIS
Related business
Manufacturer
Unknown
Mission
Spacecraft
Bus & Motor
Unknown
Mass
Unknown
Launch date (UTC)
1968-11-01 (57 years ago)
Launch vehicle
Unknown
Launch site
Tyuratam Missile And Space Complex (TTMTR)
Object type
Payload
Rocket body
Debris
Shape & HBR
Unknown shape, 0.1 m
Radar Cross Section
Small (<0.1 m²)

Expand to show TLE details & history
Last TLE update: 3 days ago

TLE from 3 days ago
0 COSMOS 252 DEB
1 03784U 68097AW  25285.46026016  .00003149  00000-0  20797-2 0  9993
2 03784  62.2460 309.4696 0622562   6.9615 353.9559 13.35547675 36881
Epoch: 2025-10-12T11:02Z
TLE epoch observation values (Epoch: 2025-10-12T11:02:46.477Z)
Latitude
-0.00004°
Longitude
122.49885°
Altitude
663.319 km
Speed
7.755 km/s
True Right ascension
20h 37m 52s
True Declination
0° 00' 00"
Sunlit
Object was in daylight at epoch
Visualization orbit readout
Latitude
Unknown
Longitude
Unknown
Altitude
Unknown
Speed
Unknown
Apparent Right ascension
Unknown
Apparent Declination
Unknown
Sunlit
N/A
Visualization observer readout
Local Sidereal Time
09:32:26
Azimuth
Unknown
Elevation
Unknown
Doppler factor
Unknown
Orbital elements
Apogee altitude
1,591.993 km
Perigee altitude
657.774 km
Semi-major axis
7,503.021 km
Eccentricity
0.06226
Inclination
62.246°
RAAN
309.4696°
Arg. of periapsis
6.9615°
True anomaly
353.14198°
Mean anomaly
353.9559°
Eccentric anomaly
353.55554°
Mean motion
3.33956 °/min
Orbital period
107.8 mins
BSTAR
0.0020797
Loading maneuver chart data...
Computing Atmospheric mass density...

Documentation

Showing up to 5 results
|